Theta_e
347 350 347 353 354 351 351 346 348 350 347 349 349 349 349 348 348 348 348 348 347 350 351 349 348 346 346 348 346 345 345 345 344 344 344 344 343 342 342 342 342 342 340 340 340 339 339 338 338 338 339 343 344 347 346 345 345 343 342 340 341 341
350 347 348 346 352 352 348 344 346 349 348 348 349 349 347 345 347 348 347 348 351 350 349 349 350 344 347 344 346 345 345 344 344 343 343 343 342 343 342 342 342 341 338 339 339 340 338 338 337 338 340 342 347 346 346 344 344 341 343 343 342 339
347 348 349 347 346 348 344 345 346 343 348 345 347 346 345 344 345 345 343 348 350 351 347 348 345 345 346 343 348 345 345 344 343 343 343 343 343 343 343 343 342 341 342 336 341 336 335 335 338 337 339 344 346 345 344 344 343 342 342 342 342 341
346 348 349 349 346 343 344 342 348 344 342 342 343 344 343 343 345 347 349 349 349 349 348 349 345 345 345 346 347 345 345 344 344 343 344 344 344 343 343 343 342 340 342 341 339 335 335 334 336 342 344 343 344 344 344 344 341 342 343 339 339 341
347 348 348 350 347 343 345 348 346 342 340 341 340 343 347 346 347 346 347 348 347 348 348 347 346 345 345 346 341 344 344 341 343 343 343 340 341 340 344 340 341 340 341 338 337 338 338 336 338 341 341 342 343 344 344 343 342 341 343 343 341 341
346 347 347 342 340 343 342 341 339 341 341 339 342 344 347 346 344 342 346 346 347 347 346 346 346 345 345 347 345 343 342 344 340 342 342 341 339 339 342 341 340 339 338 338 337 337 338 337 338 339 338 342 344 345 343 343 341 341 344 343 342 341
344 345 339 337 336 338 341 342 344 342 342 340 342 343 344 344 339 341 341 342 344 342 341 345 345 345 344 347 346 345 343 342 342 341 340 340 339 339 337 338 338 339 338 337 335 336 336 336 338 336 339 339 343 342 343 341 342 342 343 342 341 341
345 342 342 341 340 340 342 341 342 343 343 343 344 343 344 344 342 342 340 343 342 340 337 336 340 345 345 346 346 346 344 341 342 339 339 339 338 339 338 338 340 338 336 336 335 336 334 333 336 338 337 338 342 342 343 341 343 344 344 343 341 342
341 343 345 343 341 342 343 344 341 343 342 341 345 345 344 343 346 346 346 345 343 341 341 337 343 344 345 345 345 344 342 341 342 340 340 338 341 342 342 340 339 338 338 335 335 336 333 333 335 338 337 336 338 340 342 343 344 343 342 342 341 342
343 345 345 344 344 343 344 344 346 343 340 341 341 339 341 343 345 345 346 345 344 342 340 338 337 340 342 343 343 343 344 342 341 342 341 340 342 342 342 341 340 339 335 335 335 335 334 334 333 335 335 335 336 337 342 341 342 340 342 343 342 342
342 345 343 341 343 342 343 344 344 341 339 337 340 337 340 343 343 344 345 347 346 344 341 339 337 339 344 343 342 344 341 342 344 341 342 342 343 344 344 342 340 337 336 334 335 334 333 334 333 332 333 333 335 338 339 341 339 340 340 342 343 343
343 345 345 341 342 340 341 341 344 341 339 338 338 339 341 341 342 341 343 345 345 345 344 347 344 343 344 343 339 339 337 338 341 341 340 341 343 344 343 341 341 340 339 338 337 336 336 334 333 332 332 332 334 337 336 340 339 340 340 343 342 344
341 344 343 342 341 341 342 342 342 344 341 338 336 339 340 342 338 342 344 344 342 342 343 342 343 342 342 341 338 337 340 340 338 339 341 345 342 343 341 342 342 341 338 339 339 337 333 335 334 333 334 332 334 332 333 334 339 341 340 341 341 342
341 341 342 340 341 340 342 344 343 342 341 340 341 341 341 342 341 340 342 341 341 340 339 340 340 341 341 338 340 338 336 336 342 344 343 342 342 343 340 338 339 340 335 337 338 338 335 335 334 334 335 334 336 338 336 334 338 341 342 340 339 341
342 342 340 341 340 343 345 343 341 343 342 343 342 342 343 342 339 340 340 339 339 339 338 337 337 337 340 341 339 340 342 342 336 343 340 340 338 338 339 339 338 337 338 336 336 337 336 337 335 335 337 338 335 334 337 337 339 338 339 342 343 340
343 342 341 341 345 345 344 346 343 340 342 342 339 338 340 339 340 340 340 339 340 339 340 339 338 337 338 340 338 338 340 340 339 338 341 347 344 339 339 341 341 340 336 335 334 335 338 337 337 336 337 339 339 338 337 336 338 336 337 339 338 342
342 343 342 341 343 344 346 344 344 340 343 343 340 340 339 341 340 340 340 339 339 340 340 339 338 339 340 340 339 339 340 341 343 342 343 346 343 343 339 339 340 340 338 339 333 336 338 339 339 339 340 340 339 338 340 340 338 340 336 338 339 339
344 342 341 340 342 343 344 344 344 342 342 341 341 340 340 341 340 340 341 341 340 341 341 340 340 340 340 340 340 340 340 342 342 341 343 342 340 341 340 337 334 339 340 336 336 337 336 338 338 338 338 338 339 339 340 341 340 337 338 336 336 338
341 341 341 343 343 343 343 342 343 342 342 340 340 340 341 340 339 340 340 340 340 341 341 340 340 340 340 339 339 340 341 342 341 341 340 333 333 334 336 337 337 336 339 341 337 337 337 339 338 337 337 339 338 337 339 339 341 339 338 337 338 337
341 341 343 343 342 341 341 339 338 340 338 338 339 337 338 337 339 338 339 339 339 341 340 340 340 340 340 341 340 340 342 342 341 340 338 332 332 334 331 333 336 338 338 337 340 340 341 339 338 338 337 338 336 336 337 338 338 337 338 337 338 339
342 343 342 340 340 339 338 337 338 336 334 336 335 336 336 337 337 338 338 338 340 341 341 340 340 340 342 340 341 341 341 340 340 339 338 334 333 334 336 336 339 338 336 336 337 339 339 339 335 334 335 335 334 336 337 337 336 336 335 337 337 337
342 343 343 342 341 340 339 336 335 334 333 333 332 332 335 335 336 338 338 339 339 340 341 340 339 340 340 340 340 340 339 338 337 336 336 337 336 336 338 338 338 336 337 335 335 337 337 337 333 330 329 329 332 334 336 336 333 333 334 335 336 336
342 342 343 343 341 339 339 339 339 336 335 332 336 337 335 335 335 334 338 338 338 339 337 338 340 340 339 340 340 339 338 337 338 338 338 337 337 336 337 336 337 334 333 335 335 337 337 337 329 332 333 329 325 324 329 332 333 333 334 336 335 334
344 344 343 343 342 341 340 340 341 340 339 335 333 336 337 337 336 335 335 337 337 337 337 336 336 336 340 341 340 339 339 338 338 339 338 337 336 335 335 335 335 335 334 330 331 331 337 338 335 331 324 322 325 324 319 322 326 330 334 334 335 333
343 343 343 343 341 340 339 338 338 341 339 336 335 332 330 329 331 331 331 334 334 337 336 334 336 335 334 335 335 336 335 335 336 337 337 336 336 336 336 336 336 331 332 329 327 331 334 337 336 337 330 322 320 320 320 321 325 325 331 329 331 332
344 342 341 342 341 339 338 336 334 330 328 328 327 327 325 325 327 329 325 330 331 333 334 335 334 334 333 333 334 334 335 332 333 334 334 335 335 336 336 335 336 334 330 331 328 327 330 334 336 336 336 335 331 322 321 325 322 315 327 329 329 327
344 341 341 341 341 340 339 336 334 332 330 329 327 328 328 329 328 327 328 328 328 334 333 333 334 333 333 332 334 334 334 333 333 334 335 334 333 334 334 335 336 335 333 333 333 329 330 330 331 333 334 334 332 331 331 327 318 319 316 322 326 327
344 342 342 342 340 340 337 336 335 332 331 329 329 328 330 330 330 328 327 328 330 330 332 332 333 332 333 332 333 333 333 334 332 331 331 331 332 332 334 334 336 338 337 336 335 331 330 331 328 328 331 332 333 331 332 331 326 320 319 317 317 322
343 342 341 341 340 339 338 336 335 333 330 330 330 330 329 328 327 328 327 329 330 329 331 333 332 331 332 331 332 332 334 332 332 331 329 330 331 332 333 333 333 333 337 337 337 335 332 330 331 329 330 331 331 328 330 330 329 327 320 317 316 317
339 340 341 340 339 339 338 337 334 334 332 329 330 328 328 327 327 327 327 328 328 328 328 329 331 332 332 331 332 332 331 331 332 330 329 331 331 331 332 332 332 332 334 332 332 334 333 332 332 332 332 331 327 326 327 327 327 325 323 323 317 315
338 339 340 339 339 338 338 336 334 335 333 331 330 328 326 326 325 325 324 326 326 326 328 328 329 332 332 331 332 332 331 330 331 331 329 328 329 329 330 330 332 333 332 332 332 332 331 332 331 329 330 329 326 325 326 322 323 323 323 321 319 318
332 336 338 338 340 338 336 336 335 335 333 332 331 327 326 324 324 324 324 324 324 325 326 327 329 328 331 331 331 330 331 330 330 330 329 329 328 328 329 329 329 330 330 332 331 330 331 331 331 330 330 329 328 328 327 326 325 325 324 323 322 318
322 324 326 333 338 337 337 336 335 335 334 333 330 327 325 324 325 324 324 323 323 323 324 326 327 327 330 330 328 329 329 328 328 328 328 326 328 329 328 328 328 328 329 328 329 330 331 332 333 330 327 327 325 326 325 325 327 327 327 324 321 318
322 324 324 329 334 334 336 335 336 336 334 332 330 328 326 325 326 324 324 323 323 322 324 326 327 327 327 327 326 327 327 327 326 326 328 330 329 328 328 325 326 326 326 327 329 329 329 329 328 327 327 324 324 322 321 321 321 322 322 320 317 316
321 322 325 328 331 332 334 334 334 336 334 332 330 327 326 327 327 325 324 325 324 324 324 326 325 326 327 326 326 326 326 325 326 327 328 328 327 327 327 323 323 325 325 325 325 326 326 327 326 325 325 321 319 317 317 316 316 316 315 319 319 318
322 323 326 327 329 332 332 334 334 335 333 332 329 329 328 327 326 326 325 324 324 324 325 325 325 325 326 325 324 324 323 323 324 326 327 326 326 325 325 322 322 323 322 322 323 323 322 323 323 323 321 320 318 316 318 316 317 317 317 318 319 317
325 325 325 327 329 331 333 333 334 335 333 331 330 329 326 326 325 327 326 324 323 323 325 325 325 326 326 325 324 324 321 321 322 324 325 324 324 324 323 322 321 321 321 322 321 320 320 320 321 321 321 320 317 318 319 321 319 318 319 318 318 318
Wind_Speed
12 13 12 9 9 12 10 14 12 14 15 15 15 15 14 14 14 13 13 12 11 9 8 8 9 9 11 9 10 11 11 11 11 11 11 11 10 9 9 8 8 8 6 6 6 6 4 1 1 1 2 2 7 7 4 3 3 3 3 6 3 9
10 12 10 10 6 5 7 9 7 7 9 13 13 13 12 11 12 11 12 11 7 7 6 7 7 9 7 10 9 11 12 11 11 11 11 11 10 10 9 9 8 6 4 3 6 6 6 5 3 1 3 3 7 5 4 4 2 3 4 3 6 10
10 10 11 9 8 8 8 5 6 6 8 7 6 10 8 10 9 9 9 7 6 6 6 6 7 6 6 8 10 10 11 11 10 10 10 10 10 10 9 9 8 6 4 5 8 2 4 6 5 7 6 7 5 4 5 5 3 3 3 4 8 11
10 10 8 5 9 8 6 8 7 6 5 5 2 3 3 6 7 8 7 6 5 5 5 4 6 8 9 7 8 10 11 11 11 10 11 10 11 10 10 10 8 7 9 6 1 3 4 3 4 5 4 5 4 5 5 5 4 3 4 3 9 11
8 8 7 5 6 6 5 5 6 7 4 2 1 7 5 5 6 7 6 4 5 5 5 5 6 6 6 6 7 7 8 8 6 7 10 5 6 8 9 7 7 7 3 2 2 1 2 2 3 4 3 3 3 5 5 4 3 4 3 5 8 9
6 7 7 10 7 7 9 7 6 4 4 2 4 3 2 3 5 3 2 3 3 3 4 5 5 5 4 5 6 6 7 6 8 6 7 4 4 5 5 5 5 4 3 3 3 2 3 3 2 2 3 3 4 4 4 4 3 2 4 5 8 9
6 8 12 9 5 6 7 3 4 4 4 4 2 1 2 4 5 4 1 2 3 1 5 6 3 4 5 5 4 4 4 5 6 5 5 4 4 4 4 4 4 4 4 4 4 4 4 4 2 3 3 4 3 4 4 3 3 3 4 5 8 9
8 11 8 10 9 8 7 6 4 4 3 4 4 2 3 3 4 4 3 3 2 3 4 5 6 5 4 3 3 2 2 3 3 4 4 3 5 5 4 4 4 5 5 4 4 4 3 3 4 4 4 5 5 5 4 3 3 3 3 5 7 8
6 8 7 9 9 8 7 6 6 4 4 2 1 2 4 2 4 4 4 4 5 3 3 5 4 4 3 3 3 3 3 4 3 3 4 4 4 4 4 4 4 5 5 4 4 4 4 4 3 3 3 3 4 4 4 4 3 4 3 4 5 8
6 6 7 8 8 6 6 5 4 4 3 3 2 3 2 3 1 3 4 4 3 3 2 4 2 7 2 2 1 4 2 3 3 3 4 4 4 4 4 3 4 5 6 5 5 4 4 5 5 4 4 4 5 3 3 4 4 4 4 4 6 7
7 6 6 7 7 7 6 6 4 2 0 1 3 1 5 1 2 0 2 4 3 4 4 2 4 6 1 3 2 4 5 3 1 2 3 4 4 3 3 3 4 4 5 5 5 5 4 4 4 6 5 5 5 4 3 3 4 4 4 4 5 6
5 6 5 7 7 6 5 5 6 4 4 3 2 5 3 1 1 3 5 2 1 1 1 1 2 3 3 2 2 4 3 3 2 3 3 4 4 3 3 3 4 3 3 4 5 4 3 3 4 4 5 4 5 4 4 3 3 3 3 3 3 5
6 6 6 6 6 6 5 5 4 3 3 5 1 3 4 1 1 4 3 2 2 1 2 3 3 3 3 3 4 5 3 1 6 4 6 2 2 3 1 1 4 4 5 4 5 5 4 3 2 3 2 4 3 3 3 3 2 3 3 4 4 4
6 6 6 6 6 5 5 4 4 3 3 4 4 5 4 2 4 5 2 1 1 2 3 3 1 3 3 6 4 3 4 5 3 4 2 3 3 1 7 7 6 5 5 5 5 5 4 4 3 3 3 2 2 1 2 3 3 3 3 3 3 3
7 7 7 7 6 6 6 5 4 3 2 3 4 3 3 3 4 3 2 3 3 3 5 4 3 3 3 5 5 3 2 2 4 3 4 5 5 6 6 5 3 4 5 4 5 5 4 4 4 3 3 2 2 3 3 3 3 3 5 2 2 2
8 9 8 7 6 5 6 5 5 5 4 5 3 3 3 4 4 3 3 3 4 5 5 4 4 5 5 5 5 3 3 3 5 3 6 0 1 3 1 1 2 1 3 4 4 5 3 4 3 3 2 1 1 1 1 2 2 3 3 5 4 4
9 9 8 7 6 6 6 6 6 7 7 7 7 6 5 4 3 3 3 2 2 3 3 3 3 4 3 4 3 3 2 2 3 3 2 1 2 1 2 2 1 2 3 3 2 4 3 4 4 4 3 2 2 1 0 1 1 2 2 1 1 9
8 7 7 7 6 6 6 6 6 6 6 6 4 3 3 4 3 2 2 2 3 2 2 3 4 3 3 2 2 1 1 1 2 3 2 2 1 1 2 3 3 0 3 5 3 5 5 4 4 4 4 3 2 2 2 1 1 1 1 9 7 2
7 8 8 8 7 6 6 5 5 6 6 5 5 4 3 2 2 1 2 3 3 2 2 3 3 4 3 2 2 1 0 0 2 2 2 5 5 3 2 1 2 3 2 0 1 2 2 4 4 4 4 4 3 2 2 3 1 1 3 4 3 3
9 9 8 8 8 8 7 5 5 5 5 4 3 3 3 3 2 2 2 3 4 3 3 2 2 3 3 2 2 2 2 1 1 1 1 2 2 0 1 5 4 3 4 4 3 3 4 4 4 4 4 4 3 2 2 3 2 2 3 3 2 1
9 10 9 8 8 7 6 5 4 5 4 4 4 5 4 3 3 2 3 3 4 4 3 3 2 3 2 2 1 2 1 1 0 1 1 2 4 4 4 4 3 3 4 4 4 3 3 3 5 5 4 3 3 2 3 3 3 2 2 2 2 2
9 10 9 9 7 7 6 5 5 5 5 4 5 5 5 5 4 3 3 3 4 5 5 4 3 2 2 2 2 2 1 1 0 0 1 1 3 0 1 2 3 3 3 4 4 4 4 4 5 4 5 4 3 3 2 3 2 2 2 1 1 0
10 9 8 8 7 7 7 6 5 5 4 5 4 4 5 5 5 6 4 4 4 4 5 5 5 4 3 2 2 1 2 1 1 0 2 2 2 2 2 3 3 3 3 2 3 3 4 5 3 4 3 4 5 5 5 3 2 3 1 2 1 2
10 10 9 9 8 8 7 7 6 6 5 4 5 6 7 6 6 6 5 3 4 3 3 4 5 5 4 4 3 2 2 2 2 0 1 1 1 2 3 3 4 2 3 4 4 4 4 4 3 5 5 4 2 4 6 4 4 3 3 3 0 2
10 10 9 10 9 9 9 8 8 7 6 7 6 6 6 6 5 5 5 4 4 2 2 3 3 3 5 5 4 2 2 2 2 1 0 0 1 2 3 3 4 3 3 3 2 3 3 4 4 3 3 3 4 5 5 5 5 5 2 3 3 3
9 9 10 11 11 10 9 9 9 8 8 7 6 5 6 6 6 5 5 3 4 3 3 2 3 4 4 4 4 2 1 1 2 1 1 1 1 2 3 3 3 7 7 6 6 5 5 3 4 3 2 3 4 1 4 4 5 3 3 4 4 4
9 9 10 11 12 10 10 9 10 9 7 7 6 5 5 5 5 5 4 4 4 3 3 4 3 4 4 4 3 2 2 1 3 2 1 1 1 0 1 2 3 2 4 5 5 4 5 4 4 3 3 2 1 2 3 2 2 4 5 5 4 4
9 9 10 11 12 10 9 9 9 8 7 7 6 7 7 6 5 5 5 5 5 4 4 4 4 3 3 3 3 3 3 3 3 3 3 2 2 1 1 2 1 1 2 2 4 4 4 3 4 3 3 4 4 2 3 2 4 5 3 6 7 6
9 10 10 12 11 10 9 9 8 7 7 6 8 7 6 6 6 5 6 5 4 5 5 4 3 3 2 3 3 4 4 4 4 3 3 4 4 4 3 3 2 1 2 2 2 0 1 3 3 3 4 4 4 3 3 4 7 7 5 6 6 7
10 9 9 12 11 10 9 8 8 7 9 8 7 7 6 6 6 6 7 6 6 4 5 5 4 3 3 3 3 4 4 5 4 4 4 4 4 4 3 3 3 2 2 2 2 1 1 2 2 2 3 3 4 5 4 4 3 5 2 3 5 7
9 8 10 11 10 10 9 9 8 9 9 9 9 8 8 7 6 6 7 6 6 5 4 5 5 4 3 4 4 4 4 4 4 3 3 4 3 3 3 3 3 3 3 3 3 2 1 1 0 1 1 3 3 3 3 4 4 4 2 4 5 6
8 0 9 10 10 10 9 8 8 9 10 10 10 8 9 9 8 8 7 6 5 5 5 5 5 5 4 4 4 4 4 4 4 3 4 3 3 3 3 3 3 3 3 4 4 3 3 3 3 3 3 0 2 1 1 2 3 4 4 3 4 5
8 5 10 7 9 10 9 8 8 9 10 9 9 10 9 9 8 7 7 7 6 6 6 6 5 6 5 4 3 4 3 3 4 4 4 4 5 5 4 4 5 5 4 4 4 3 3 4 4 3 3 3 3 2 2 2 1 1 2 3 4 5
13 11 10 9 6 7 8 8 8 8 9 8 8 9 8 9 8 6 6 6 6 7 6 6 6 6 5 4 4 5 5 5 5 5 5 5 5 5 4 4 5 5 5 5 4 5 5 5 5 4 3 3 3 3 4 3 2 1 3 4 4 4
11 10 9 8 7 8 7 8 8 7 7 7 7 7 7 7 7 7 6 6 6 6 7 7 6 6 6 5 5 5 6 6 6 5 5 5 5 5 4 5 6 5 5 5 5 5 5 5 4 4 4 3 3 3 3 3 2 2 2 1 3 4
9 11 10 9 7 7 7 6 7 8 8 8 7 7 7 7 7 7 7 6 6 7 7 7 7 7 6 6 6 7 6 6 6 6 6 6 5 5 5 5 5 5 5 4 5 5 4 5 5 5 4 3 4 5 4 4 3 4 4 2 2 3
6 7 9 9 8 7 7 7 8 8 8 7 7 7 8 9 8 7 7 6 7 7 8 7 7 6 6 6 6 6 7 7 6 6 6 5 5 5 4 5 5 5 5 4 4 5 4 5 4 4 5 4 5 5 5 5 5 4 4 2 2 1
Wind_Direction
182 174 164 160 175 162 149 155 145 137 136 131 128 129 134 139 138 138 139 133 142 141 134 132 151 137 143 143 116 128 134 132 133 132 130 127 127 124 118 113 111 101 112 120 123 124 103 100 67 28 338 227 182 211 181 130 145 126 118 131 159 94
176 166 168 179 146 140 150 152 146 134 143 134 132 134 150 150 146 141 138 147 143 137 144 146 140 144 149 135 144 142 140 138 138 135 130 133 134 133 134 126 121 115 104 191 202 183 154 147 169 164 223 208 208 201 155 163 152 133 116 122 98 108
173 171 172 164 161 142 168 122 146 171 131 104 123 156 164 162 148 148 149 139 137 142 147 140 141 172 141 133 138 146 139 139 137 137 140 139 142 139 138 138 129 133 164 225 223 171 199 164 162 178 202 207 201 192 163 156 168 135 138 81 96 108
169 167 173 171 146 162 150 192 146 101 65 81 191 300 197 165 170 143 137 138 134 138 140 141 131 139 139 148 142 148 144 141 144 149 153 158 147 143 140 142 146 164 206 212 84 199 186 191 165 191 195 202 191 171 168 170 174 147 102 139 102 113
162 157 158 127 79 72 86 58 69 70 52 71 273 225 189 169 145 128 126 127 135 146 155 154 163 161 181 159 155 162 160 164 156 166 176 179 169 155 180 163 162 194 164 160 162 89 297 144 196 209 188 216 183 170 178 172 169 144 130 94 101 119
156 151 87 57 40 63 68 42 75 102 141 182 210 258 334 4 67 74 55 68 110 141 170 166 168 174 180 175 172 173 179 165 164 169 185 177 163 174 176 177 180 173 159 153 161 174 174 219 189 203 191 187 184 175 183 169 151 139 111 114 118 123
139 97 95 128 150 86 78 97 105 163 138 148 161 128 62 83 75 66 134 93 90 63 351 339 191 194 177 186 184 183 171 160 167 167 174 178 161 181 193 168 169 167 167 164 171 167 190 185 213 176 202 171 172 172 171 176 152 162 117 115 125 131
73 79 128 133 121 124 132 140 118 135 122 145 164 144 105 93 146 173 99 104 111 134 135 230 229 193 188 196 184 190 156 172 180 170 168 183 175 182 183 178 171 166 171 164 162 182 182 171 179 191 180 162 169 167 178 164 142 129 131 123 135 137
128 158 124 117 124 130 136 139 141 150 149 153 222 135 83 179 177 130 141 174 193 190 164 244 230 216 182 186 182 192 191 184 191 173 176 189 189 175 178 178 171 167 161 168 159 170 182 178 183 188 164 156 159 166 159 157 153 147 149 129 128 135
154 131 123 121 127 128 132 136 118 108 69 102 307 45 220 207 158 149 173 194 194 182 164 195 327 301 190 189 218 195 215 217 191 173 201 184 189 188 176 170 172 171 158 170 155 167 174 178 182 158 176 171 161 176 163 167 163 164 143 150 129 138
142 123 130 131 135 133 135 120 98 90 138 118 92 340 272 37 78 137 241 194 173 191 171 251 226 224 179 213 207 229 204 203 166 296 268 194 194 184 181 173 181 170 166 165 154 162 181 174 173 169 177 181 169 174 175 173 181 167 164 154 143 143
151 135 138 135 132 120 117 116 117 154 200 107 94 221 257 117 94 227 216 210 90 97 226 128 246 255 238 219 260 337 347 273 224 174 252 255 171 192 181 186 169 176 168 159 152 164 161 177 173 165 173 168 160 173 181 181 181 164 162 141 152 137
165 141 153 139 133 130 129 133 136 157 131 118 142 219 237 154 160 228 225 162 180 122 84 202 225 264 278 245 189 212 260 266 242 154 229 276 207 165 243 215 186 167 178 169 164 153 169 153 177 153 187 143 171 185 158 165 183 155 168 155 157 165
163 159 164 146 142 135 130 128 139 141 135 139 176 196 205 174 206 229 225 224 164 194 206 219 279 263 236 259 238 177 196 244 257 223 164 201 239 132 205 195 183 182 167 180 168 160 161 161 149 178 174 162 165 139 191 152 175 159 158 178 153 170
167 165 169 154 159 145 139 139 145 128 155 162 177 195 184 183 223 232 188 211 185 200 229 222 224 250 265 264 264 232 216 213 257 276 219 190 200 200 224 184 164 187 160 188 170 169 169 146 168 156 133 207 161 177 183 175 154 189 169 128 208 179
169 174 172 165 161 149 136 146 148 150 145 151 166 195 199 199 208 211 215 215 188 191 222 225 210 224 238 242 244 243 229 208 231 189 249 98 218 221 250 262 130 54 181 174 175 161 160 147 173 148 145 156 89 335 228 160 173 228 175 190 196 145
173 171 173 163 168 154 145 153 164 155 156 166 178 177 171 179 200 191 183 164 173 170 201 223 225 221 227 241 230 234 230 263 270 278 288 222 235 350 329 20 349 81 20 313 163 127 149 149 157 144 129 120 97 89 103 33 186 294 18 258 1 28
171 162 161 160 167 157 150 157 158 152 152 145 134 137 149 163 183 187 165 141 145 161 193 185 193 193 209 214 216 221 237 243 272 274 308 273 192 314 46 115 235 145 147 213 165 179 169 161 157 150 139 133 129 137 105 96 99 198 272 33 41 179
162 161 160 160 160 140 137 150 146 147 140 131 138 147 153 163 137 135 142 139 132 121 165 164 177 172 162 176 158 151 258 277 260 288 18 15 348 1 293 341 217 182 157 227 126 212 158 158 155 151 144 125 125 111 95 68 37 70 86 126 90 69
165 165 159 157 152 151 151 156 154 145 138 134 142 138 157 126 128 125 127 135 133 143 142 165 150 149 155 164 160 170 169 220 213 272 47 298 262 219 179 223 210 149 138 133 142 147 161 162 128 117 117 133 124 132 111 102 78 62 79 112 135 86
174 164 160 163 163 156 152 149 162 163 153 167 150 142 132 124 123 113 138 136 134 138 134 141 138 139 146 148 169 137 159 131 36 263 183 244 258 218 190 229 133 158 145 140 132 155 147 167 158 148 148 137 148 145 106 120 113 103 72 78 125 173
170 165 164 167 154 151 150 162 163 158 154 150 144 152 134 129 118 112 127 120 125 133 135 136 140 118 107 127 118 121 118 106 221 126 316 210 223 326 257 183 166 159 176 161 149 169 162 188 185 193 169 165 161 156 124 130 150 111 108 122 119 166
168 162 166 156 152 153 161 162 162 136 148 125 87 75 98 103 124 123 118 118 120 122 131 134 138 135 136 115 106 102 110 113 134 148 207 202 201 214 203 196 187 164 147 132 145 177 180 238 223 185 180 184 184 192 160 146 86 83 71 89 157 162
168 167 164 156 166 151 155 150 141 133 129 134 123 111 109 115 113 123 119 107 104 115 119 128 127 134 118 112 105 100 107 97 99 87 220 186 186 197 190 195 192 139 184 168 170 168 205 219 258 186 203 218 157 233 205 170 153 81 93 91 19 88
171 164 163 159 158 150 150 150 141 127 122 119 132 133 132 124 119 110 116 122 109 104 127 122 122 118 118 113 101 71 58 82 69 76 303 142 166 178 185 188 171 176 208 202 195 170 205 225 237 265 307 188 190 209 235 134 165 117 130 127 94 99
171 165 160 159 155 158 161 152 150 149 151 153 142 149 140 135 141 139 109 107 115 111 107 106 127 112 99 99 97 105 108 123 116 89 32 40 144 175 174 179 191 174 177 209 225 208 192 194 242 213 261 341 3 6 317 131 200 132 98 71 85 75
172 168 160 160 164 165 159 155 157 157 154 150 143 131 116 119 114 108 110 118 114 115 112 113 103 106 98 99 108 127 121 112 113 136 133 156 95 224 165 173 143 202 173 181 210 212 197 187 193 219 220 224 150 182 233 184 180 130 147 126 97 100
172 169 166 163 170 168 160 159 163 155 147 146 139 132 138 126 117 116 115 125 131 127 121 111 114 102 111 107 109 116 103 96 107 119 143 127 115 90 78 86 104 161 166 187 190 220 198 167 205 174 207 216 210 216 211 216 134 226 194 139 132 100
176 172 168 167 168 167 162 161 161 152 146 134 136 141 140 139 134 126 124 123 117 116 111 96 89 99 94 94 115 109 94 91 83 86 97 103 90 78 70 70 99 134 131 139 159 196 204 179 212 153 181 182 190 204 172 211 228 225 246 149 133 123
177 173 161 165 166 162 159 162 161 154 142 138 141 139 141 138 137 141 130 133 133 134 127 124 109 84 87 92 92 109 106 96 90 76 67 72 87 83 70 64 54 53 70 88 74 108 216 162 216 132 211 151 185 178 209 177 211 232 166 138 148 145
176 169 161 162 162 160 160 168 167 155 145 143 144 145 142 147 145 150 146 144 141 133 134 123 124 109 86 88 88 84 87 87 87 68 62 61 54 63 68 65 72 73 77 80 88 70 86 121 62 158 219 154 232 196 203 196 173 206 187 173 148 154
33 71 167 163 161 163 165 175 165 154 149 150 152 152 152 152 157 153 149 144 136 137 134 132 131 119 102 88 85 79 78 84 76 70 66 55 52 76 75 77 75 71 77 82 96 120 123 145 163 157 197 174 253 280 182 242 160 195 196 154 157 152
82 13 340 275 167 170 170 170 164 158 154 156 159 155 154 155 157 154 154 149 146 136 139 141 131 118 102 97 100 105 95 84 84 68 58 69 80 68 75 78 78 79 73 76 80 98 128 128 140 148 144 155 147 129 110 82 91 184 150 136 157 160
170 176 174 234 198 180 176 166 167 162 155 161 161 159 157 155 156 152 151 151 148 141 137 132 127 113 113 103 87 87 82 77 74 78 79 76 73 74 77 98 88 76 79 77 81 86 95 97 94 95 108 100 78 83 64 60 70 108 124 158 158 153
161 157 180 203 195 187 180 171 168 162 160 161 161 161 158 151 150 147 148 153 143 139 135 134 124 113 109 103 103 95 92 91 88 86 87 89 91 88 66 73 84 80 75 77 80 80 80 85 86 72 61 66 96 82 70 68 52 56 128 124 151 154
155 171 177 187 187 185 179 170 165 165 171 170 166 159 146 147 142 143 148 150 144 138 133 128 122 122 117 114 111 108 102 95 94 97 97 96 97 91 80 85 92 90 88 83 92 89 95 85 70 68 71 67 75 76 64 62 69 45 39 55 97 143
168 170 182 182 184 182 173 165 167 171 176 172 165 158 149 145 143 148 152 152 145 134 135 135 129 128 127 121 120 112 106 103 101 103 106 102 98 98 97 95 96 99 91 83 81 76 72 82 86 78 75 67 78 82 74 66 63 70 74 68 89 115